カタログに戻る

STARLINK-36950

運用中通信VLEO
NORAD 67992·PAYLOAD·🇺🇸 United States

打ち上げ Feb 27, 2026 から Vandenberg Space Force Base

Loading…

次のパス (今後24時間)

TLE

最新Source: CelesTrak SupGP

元期: Sep 15, 2026, 04:10 UTC

1 67992C 26039G   26258.17409722 -.00027662  00000+0 -10017-2 0  2581
2 67992  43.0029  58.9353 0001842 267.9559  13.8997 15.27596876    18

AllMySatでSTARLINK-36950をリアルタイム追跡

Download on the App Store